Location: Del Amo
(33.8464°N, 118.2104°W)
Time: 16:51:07
(UTC+00:00)

XW-2D - Visible Passes

Search period start: 07 October 2024 00:00
Search period end: 17 October 2024 00:00
Orbit: 345 x 351 km, 97.5° (Epoch: 07 October)

Date Brightness Start Highest point End Pass type
(mag) Time Alt. Az. Time Alt. Az. Time Alt. Az.
07 Oct ? 02:24:11 21° ESE 02:25:11 27° ENE 02:27:38 10° NNE visible
08 Oct ? 02:49:21 71° SE 02:49:34 80° E 02:52:22 10° N visible
09 Oct ? 03:13:59 31° WNW 03:13:59 31° WNW 03:16:06 10° NNW visible
10 Oct ? 02:06:38 13° ENE 02:06:38 13° ENE 02:08:01 10° NE visible
10 Oct ? 03:38:07 12° WNW 03:38:07 12° WNW 03:38:36 10° WNW visible
11 Oct ? 02:30:17 24° NE 02:30:17 24° NE 02:31:56 10° N visible
12 Oct ? 02:53:25 24° N 02:53:25 24° N 02:54:38 10° N visible
13 Oct ? 03:16:02 13° NW 03:16:02 13° NW 03:16:26 10° NNW visible
